TimeEDT,TemperatureF,Dew PointF,Humidity,Sea Level PressureIn,VisibilityMPH,Wind Direction,Wind SpeedMPH,Gust SpeedMPH,PrecipitationIn,Events,Conditions,WindDirDegrees,DateUTC
12:53 AM,70.0,60.1,71,29.95,10.0,SE,6.9,-,N/A,,Overcast,140,2014-08-13 04:53:00
1:53 AM,69.1,61.0,75,29.93,10.0,Variable,4.6,-,N/A,,Overcast,0,2014-08-13 05:53:00
2:53 AM,70.0,61.0,73,29.90,10.0,Variable,5.8,-,N/A,,Mostly Cloudy,0,2014-08-13 06:53:00
3:53 AM,70.0,61.0,73,29.89,10.0,SSE,3.5,-,N/A,,Overcast,150,2014-08-13 07:53:00
4:53 AM,70.0,61.0,73,29.87,10.0,Variable,6.9,-,N/A,,Overcast,0,2014-08-13 08:53:00
5:03 AM,70.0,62.1,76,29.89,10.0,Variable,6.9,-,N/A,,Overcast,0,2014-08-13 09:03:00
5:39 AM,69.1,62.1,78,29.88,10.0,Variable,6.9,-,N/A,,Overcast,0,2014-08-13 09:39:00
5:53 AM,69.1,62.1,78,29.86,10.0,Variable,4.6,-,N/A,,Overcast,0,2014-08-13 09:53:00
6:53 AM,66.9,63.0,87,29.85,3.0,Variable,5.8,-,0.02,Rain,Light Rain,0,2014-08-13 10:53:00
9:53 AM,66.9,61.0,81,29.84,10.0,Variable,6.9,-,N/A,,Overcast,0,2014-08-13 13:53:00
11:12 AM,66.9,61.0,81,29.83,6.0,ESE,10.4,21.9,0.00,Rain,Light Rain,120,2014-08-13 15:12:00
11:53 AM,66.0,61.0,84,29.82,3.0,SE,9.2,16.1,0.09,Rain,Rain,140,2014-08-13 15:53:00
12:45 PM,64.9,60.1,84,29.84,2.0,Variable,4.6,-,0.21,Rain,Rain,0,2014-08-13 16:45:00
12:53 PM,64.9,60.1,84,29.82,2.0,SSW,5.8,-,0.24,Rain,Rain,200,2014-08-13 16:53:00
1:34 PM,64.0,60.1,87,29.81,2.0,Variable,5.8,-,0.21,Rain,Rain,0,2014-08-13 17:34:00
1:53 PM,64.0,60.1,87,29.78,2.0,Variable,5.8,-,0.30,Rain,Rain,0,2014-08-13 17:53:00
2:27 PM,64.0,60.1,87,29.78,1.8,Variable,3.5,-,0.15,Rain,Rain,0,2014-08-13 18:27:00
2:38 PM,64.0,59.0,84,29.77,2.5,Variable,3.5,-,0.19,Rain,Light Rain,0,2014-08-13 18:38:00
2:45 PM,63.0,59.0,87,29.76,3.0,NE,10.4,17.3,0.21,Rain,Rain,40,2014-08-13 18:45:00
2:53 PM,63.0,60.1,90,29.72,2.5,NE,8.1,17.3,0.24,Rain,Rain,50,2014-08-13 18:53:00
3:12 PM,64.0,59.0,84,29.75,3.0,Variable,6.9,17.3,0.07,Rain,Rain,0,2014-08-13 19:12:00
3:53 PM,64.0,60.1,87,29.70,4.0,Calm,Calm,-,0.14,Rain,Light Rain,0,2014-08-13 19:53:00
4:00 PM,64.0,60.1,87,29.70,6.0,NE,6.9,-,0.01,Rain,Light Rain,50,2014-08-13 20:00:00
4:14 PM,64.0,59.0,84,29.71,8.0,Variable,4.6,-,0.03,Rain,Light Rain,0,2014-08-13 20:14:00
4:53 PM,64.0,57.9,80,29.67,10.0,ENE,8.1,18.4,0.04,Rain,Light Rain,60,2014-08-13 20:53:00
5:53 PM,64.0,60.1,87,29.68,10.0,Calm,Calm,-,0.00,,Overcast,0,2014-08-13 21:53:00
6:53 PM,64.0,60.1,87,29.67,10.0,North,4.6,-,0.00,,Overcast,360,2014-08-13 22:53:00
7:53 PM,63.0,59.0,87,29.67,10.0,Calm,Calm,-,N/A,,Overcast,0,2014-08-13 23:53:00
8:53 PM,63.0,59.0,87,29.69,10.0,Variable,3.5,-,N/A,,Overcast,0,2014-08-14 00:53:00
9:02 PM,63.0,60.1,90,29.72,9.0,NNW,3.5,-,0.00,Rain,Light Rain,330,2014-08-14 01:02:00
9:10 PM,63.0,60.1,90,29.72,7.0,Variable,3.5,-,0.01,Rain,Light Rain,0,2014-08-14 01:10:00
9:53 PM,63.0,60.1,90,29.70,6.0,Calm,Calm,-,0.01,Rain,Light Rain,0,2014-08-14 01:53:00
10:53 PM,62.1,60.1,93,29.68,7.0,NE,3.5,-,0.03,,Overcast,40,2014-08-14 02:53:00
11:08 PM,63.0,60.1,90,29.70,5.0,Calm,Calm,-,N/A,,Overcast,0,2014-08-14 03:08:00